Location: Newark
(25.4800°N, 85.7200°E)
Time: 16:59:22
(UTC+00:00)

Vanguard 1 Rocket - Pass Details

Date: 27 August 2019
Orbit: 650 x 4226 km, 34.3° (Epoch: 17 October)

Event Time Altitude Azimuth Distance (km) Brightness Sun altitude
Rises 04:29:45 0° 259° (WSW) 5,306 11.1 60.0°
Reaches altitude 10° 04:35:49 10° 235° (SW) 5,051 11.2 61.2°
Maximum altitude 04:42:08 14° 209° (SSW) 5,430 11.5 62.4°
Drops below altitude 10° 04:50:01 10° 185° (S) 6,448 12.0 64.0°
Sets 05:01:02 0° 164° (SSE) 8,158 12.5 66.0°
